[[{"header":{"parameterUnit":"m.s-1","parameterCategory":1,"la1":30.2991,"la2":30.254,"lo1":-89.0895,"lo2":-89.0444,"dy":0.0017,"dx":0.0017,"nx":28,"ny":28,"refTime":"2024-03-04T03:00:00:Z","depth":0,"parameterNumber":2,"parameterNumberName":"U-component_of_WINDS"},"data":[0,0,0,0,0,0,0,0,0,0,0,0,0,0,0,0,0,0,0,0,0,0,0,0,0,0,0,0,0,0,0,0,0,0,0,0,0,0,0,0,0,0,0,0,0,0,0,0,0,0,0,0,0,0,0,0,0,0,-9.8756,-9.8758,0,-9.9003,-9.9006,-9.9009,-9.8971,-9.8967,-9.8963,-9.8959,-9.9205,-9.9215,-9.9225,0,0,0,0,0,0,0,0,0,0,0,0,0,-9.8246,-9.8256,-9.8755,-9.8759,-9.8762,-9.9003,-9.9006,-9.9009,-9.8972,-9.8967,-9.8962,-9.8957,-9.9201,-9.9214,-9.9226,0,0,0,0,0,0,0,0,0,0,0,0,0,-9.8478,-9.8259,-9.8755,-9.8772,-9.8776,-9.9002,-9.9006,-9.901,-9.8973,-9.8967,-9.8961,-9.8955,-9.9197,-9.9213,-9.9228,-9.9449,0,0,-9.9276,-9.9282,0,0,0,0,0,0,0,0,-9.8465,-9.8496,-9.8767,-9.8772,-9.8777,-9.895,-9.8916,-9.9157,-9.8975,-9.8898,-9.8959,-9.8952,-9.9125,-9.9146,-9.9206,-9.9461,-9.9471,-9.9277,-9.9287,-9.9293,-9.9298,0,0,0,0,0,0,0,-9.8449,-9.8485,-9.8853,-9.8771,-9.8777,-9.8766,-9.8792,-9.8962,-9.9043,-9.8904,-9.8902,-9.8933,-9.9126,-9.9191,-9.9211,-9.9475,-9.9277,-9.9291,-9.93,-9.9306,-9.9923,-9.993,0,0,0,0,0,0,-9.8429,-9.8472,-9.8845,-9.8861,-9.8602,-9.8781,-9.881,-9.8901,-9.9041,-9.9057,-9.8938,-9.893,-9.9167,-9.9193,-9.922,-9.9486,-9.9293,-9.9308,-9.9317,-9.9917,-9.9925,-9.9933,0,0,0,0,0,0,-9.8418,-9.8462,-9.8835,-9.8666,-9.8713,-9.8796,-9.8898,-9.8909,-9.8973,-9.9067,-9.908,-9.8989,-9.9163,-9.9198,-9.9393,-9.9494,-9.9315,-9.9329,-9.9908,-9.9919,-9.9929,-10.0021,0,0,0,0,0,0,-9.8403,-9.8459,-9.8544,-9.8669,-9.8722,-9.9006,-9.8905,-9.8918,-9.9001,-9.8993,-9.9118,-9.9133,-9.9161,-9.937,-9.9408,-9.9512,-9.9341,-9.9899,-9.9913,-9.9926,-10.0009,-10.0033,-10.0054,0,0,0,0,0,-9.8385,-9.8559,-9.8549,-9.8594,-9.8831,-9.9012,-9.9042,-9.9073,-9.901,-9.9095,-9.9156,-9.9129,-9.9479,-9.939,-9.9433,-9.9543,-9.9893,-9.9909,-9.9925,-9.9999,-10.0029,-10.0054,0,0,0,0,0,0,-9.844,-9.8575,-9.8565,-9.8785,-9.8888,-9.9005,-9.9113,-9.9103,-9.9224,-9.9211,-9.9243,-9.9272,-9.9469,-9.9527,-9.9426,-9.9765,-9.9677,-9.9702,-9.9718,-9.9747,-9.9769,-9.9748,-9.9354,0,0,0,0,0,-9.8479,-9.8616,-9.8726,-9.8908,-9.8961,-9.903,-9.9109,-9.9125,-9.9231,-9.9273,-9.9348,-9.9451,-9.9583,-9.967,-9.9797,-10.002,-10.0045,-10.0117,-10.014,-10.0158,-10.0177,-10.0297,-10.0329,-9.9985,-9.9984,-9.9984,0,0,-9.8557,-9.8648,-9.8732,-9.8922,-9.9003,-9.9142,-9.9065,-9.9216,-9.9319,-9.9295,-9.9483,-9.9543,-9.966,-9.9869,-9.9965,-9.9923,-10.0279,-10.0178,-10.0192,-10.0201,-10.0317,-10.0349,-10.0378,-9.9995,-9.9993,-9.9992,0,0,-9.877,-9.8855,-9.9016,-9.9101,-9.9226,-9.9272,-9.9311,-9.9432,-9.9471,-9.9662,-9.9647,-9.977,-9.9999,-10.0082,-10.0155,-10.0406,-10.0384,-10.0448,-10.0562,-10.0679,-10.0706,-10.073,-10.0815,-10.0846,-10.0468,-10.0468,-10.0468,0,-9.885,-9.9062,-9.9099,-9.9252,-9.9335,-9.9326,-9.9488,-9.9568,-9.9728,-9.9784,-9.9737,-10.0025,-10.0103,-10.0331,-10.0393,-10.0454,-10.0496,-10.0429,-10.07,-10.0724,-10.0747,-10.0829,-10.0861,-10.0474,-10.0474,-10.0473,-10.0472,0,-9.9153,-9.93,-9.9415,-9.9573,-9.967,-9.9827,-9.9886,-9.998,-9.999,-10.0039,-10.0234,-10.0329,-10.0474,-10.0532,-10.0541,-10.0762,-10.0731,-10.0693,-10.0603,-10.0786,-10.0863,-10.0895,-10.0484,-10.0481,-10.0479,-10.0478,0,0,-9.9398,-9.958,-9.9621,-9.9693,-9.9834,-9.9947,-10.0105,-10.0251,-10.0329,-10.0443,-10.0572,-10.0769,-10.0735,-10.0817,-10.0837,-10.0941,-10.113,-10.0888,-10.0891,-10.0925,-10.1375,-10.1398,-10.1434,-10.112,-10.1126,-10.1131,-10.1363,0,-9.9621,-9.99,-9.994,-10.0185,-10.0321,-10.0318,-10.0454,-10.0555,-10.0608,-10.0729,-10.0786,-10.0924,-10.087,-10.0919,-10.1023,-10.1084,-10.1219,-10.107,-10.1236,-10.1242,-10.12,-10.1475,-10.1501,-10.1715,-10.1394,-10.1399,-10.1403,0,-9.9915,-10.0039,-10.0299,-10.0424,-10.0482,-10.0604,-10.0742,-10.086,-10.0974,-10.1006,-10.1101,-10.1109,-10.127,-10.1181,-10.1401,-10.1298,-10.1371,-10.1412,-10.1421,-10.1432,-10.1328,-10.1488,-10.1784,-10.1814,-10.1452,-10.1448,-10.1444,0,-10.0062,-10.0295,-10.048,-10.0543,-10.0694,-10.078,-10.0846,-10.0956,-10.1042,-10.1163,-10.1218,-10.1357,-10.143,-10.1536,-10.1581,-10.1512,-10.1798,-10.1712,-10.1824,-10.1823,-10.1877,-10.1872,-10.2183,-10.1936,-10.1935,-10.1934,-10.1934,0,-10.0301,-10.0458,-10.0548,-10.0661,-10.0838,-10.0885,-10.1057,-10.1121,-10.1219,-10.1343,-10.1351,-10.1466,-10.1522,-10.1646,-10.1683,-10.1858,-10.1893,-10.1919,-10.1926,-10.1915,-10.1911,-10.1957,-10.194,-10.1943,-10.1941,-10.1939,-10.1938,0,-10.049,-10.0558,-10.0758,-10.0889,-10.0925,-10.1049,-10.1158,-10.1268,-10.1323,-10.148,-10.1519,-10.1604,-10.1751,-10.1809,-10.1987,-10.2012,-10.2213,-10.2211,-10.2174,-10.2174,-10.228,-10.2267,-10.2626,-10.2674,-10.2401,-10.2403,-10.2406,0,-10.0635,-10.0756,-10.0901,-10.0987,-10.1057,-10.1195,-10.1284,-10.1337,-10.1429,-10.1572,-10.1663,-10.1811,-10.193,-10.2165,-10.2241,-10.2378,-10.2375,-10.2492,-10.2395,-10.238,-10.237,-10.236,-10.237,-10.2507,-10.251,-10.2512,-10.2514,0,-10.0883,-10.0911,-10.1041,-10.1184,-10.1292,-10.1406,-10.1517,-10.1586,-10.1656,-10.1759,-10.1911,-10.2005,-10.219,-10.2335,-10.2478,-10.2544,-10.2539,-10.2546,-10.2577,-10.2563,-10.2535,-10.2546,-10.2215,-10.2534,-10.2532,-10.2531,-10.253,-10.2529,-10.105,-10.1158,-10.1277,-10.1422,-10.1513,-10.1618,-10.1727,-10.1798,-10.1927,-10.2083,-10.2108,-10.227,-10.2383,-10.2575,-10.2648,-10.2774,-10.2743,-10.279,-10.2801,-10.281,-10.2815,-10.2522,-10.2801,-10.28,-10.28,-10.2799,-10.2799,0,-10.1293,-10.1372,-10.1505,-10.1663,-10.1777,-10.1771,-10.1895,-10.1989,-10.2133,-10.2241,-10.2361,-10.2536,-10.2679,-10.2769,-10.2912,-10.2995,-10.2997,-10.303,-10.3021,-10.3035,-10.2837,-10.2792,-10.3027,-10.3027,-10.3027,-10.3027,-10.3026,-10.3026,-10.1432,-10.1614,-10.1658,-10.1885,-10.1962,-10.2123,-10.2194,-10.2291,-10.2378,-10.2574,-10.2694,-10.2754,-10.2855,-10.3006,-10.3136,-10.3159,-10.3208,-10.3243,-10.3263,-10.3074,-10.305,-10.3027,-10.2985,-10.3255,-10.3256,-10.345,-10.3452,-10.3453]},{"header":{"parameterUnit":"m.s-1","parameterCategory":1,"la1":30.2991,"la2":30.254,"lo1":-89.0895,"lo2":-89.0444,"dy":0.0017,"dx":0.0017,"nx":28,"ny":28,"refTime":"2024-03-04T03:00:00:Z","depth":0,"parameterNumber":3,"parameterNumberName":"V-component_of_WINDS"},"data":[0,0,0,0,0,0,0,0,0,0,0,0,0,0,0,0,0,0,0,0,0,0,0,0,0,0,0,0,0,0,0,0,0,0,0,0,0,0,0,0,0,0,0,0,0,0,0,0,0,0,0,0,0,0,0,0,0,0,2.8735,2.8735,0,2.8701,2.8701,2.87,2.863,2.8629,2.8627,2.8626,2.8589,2.8589,2.859,0,0,0,0,0,0,0,0,0,0,0,0,0,2.8735,2.8735,2.8735,2.8735,2.8734,2.8701,2.8701,2.87,2.863,2.8629,2.8627,2.8625,2.8589,2.8589,2.859,0,0,0,0,0,0,0,0,0,0,0,0,0,2.8721,2.8735,2.8735,2.8695,2.8691,2.8701,2.8701,2.87,2.8631,2.8629,2.8626,2.8624,2.8589,2.8589,2.859,2.8635,0,0,2.8591,2.8592,0,0,0,0,0,0,0,0,2.8722,2.8721,2.8702,2.8698,2.8694,2.8668,2.8687,2.8678,2.8631,2.8654,2.8626,2.8623,2.8617,2.8615,2.8613,2.8633,2.8632,2.8591,2.8592,2.8592,2.8592,0,0,0,0,0,0,0,2.8723,2.8722,2.8722,2.8701,2.8697,2.8678,2.8673,2.8685,2.8647,2.8652,2.8646,2.8643,2.8614,2.8613,2.8612,2.8631,2.8591,2.8592,2.8592,2.8592,2.8682,2.8684,0,0,0,0,0,0,2.873,2.8724,2.8723,2.872,2.8703,2.8679,2.8675,2.8678,2.8647,2.864,2.8645,2.864,2.8613,2.8611,2.861,2.8658,2.8592,2.8592,2.8593,2.868,2.8682,2.8684,0,0,0,0,0,0,2.8731,2.8731,2.8724,2.8721,2.8718,2.8682,2.8686,2.8679,2.8677,2.8642,2.8635,2.8651,2.8611,2.8609,2.8628,2.8656,2.8593,2.8593,2.8677,2.868,2.8683,2.8756,0,0,0,0,0,0,2.8731,2.8732,2.875,2.8722,2.8719,2.8745,2.8688,2.8679,2.8678,2.8672,2.8646,2.8639,2.8609,2.8628,2.8629,2.8655,2.8593,2.8675,2.8679,2.8682,2.8751,2.8762,2.877,0,0,0,0,0,2.8731,2.8772,2.8751,2.8751,2.8741,2.8747,2.8745,2.871,2.8681,2.8698,2.8675,2.864,2.8653,2.8631,2.8631,2.8658,2.8673,2.8678,2.8682,2.8747,2.876,2.877,0,0,0,0,0,0,2.8805,2.8768,2.8744,2.8777,2.8766,2.8735,2.8755,2.8725,2.8721,2.8715,2.8671,2.8665,2.869,2.8676,2.8652,2.8698,2.8657,2.8662,2.8706,2.8718,2.8727,2.873,2.8594,0,0,0,0,0,2.8825,2.8833,2.88,2.8833,2.8828,2.8793,2.8794,2.8768,2.8754,2.8748,2.8727,2.8713,2.8713,2.8715,2.8714,2.8749,2.874,2.8767,2.8777,2.8785,2.8789,2.8803,2.8814,2.87,2.87,2.87,0,0,2.8866,2.8847,2.8856,2.8847,2.8835,2.8843,2.8789,2.8801,2.8806,2.875,2.8766,2.8749,2.8731,2.8757,2.8768,2.8747,2.8819,2.8791,2.8797,2.8797,2.8809,2.882,2.8829,2.8703,2.8702,2.8702,0,0,2.8946,2.8934,2.8958,2.8946,2.8928,2.8903,2.8909,2.8882,2.8869,2.8884,2.8841,2.8846,2.8848,2.8836,2.883,2.8901,2.8868,2.8902,2.8952,2.8965,2.8974,2.8982,2.9005,2.9014,2.8907,2.8907,2.8907,0,2.9,2.9012,2.8974,2.8987,2.8983,2.8932,2.8955,2.8945,2.8928,2.8925,2.8901,2.8901,2.8886,2.8906,2.8923,2.8921,2.8924,2.8905,2.8976,2.8984,2.899,2.9011,2.902,2.8911,2.891,2.891,2.891,0,2.9078,2.9086,2.9107,2.9091,2.9089,2.9108,2.907,2.9073,2.9046,2.9024,2.9038,2.9017,2.9009,2.9012,2.8986,2.9028,2.9015,2.8985,2.8942,2.9006,2.9025,2.9033,2.8917,2.8915,2.8914,2.8913,0,0,2.9205,2.9165,2.9173,2.9163,2.9138,2.9143,2.9157,2.9149,2.9151,2.914,2.9149,2.915,2.9121,2.9114,2.9086,2.9098,2.9152,2.9066,2.9064,2.9081,2.9193,2.9216,2.9226,2.913,2.9131,2.9132,2.9194,0,2.9278,2.9301,2.9265,2.9296,2.9302,2.9251,2.9263,2.9247,2.9226,2.9226,2.9201,2.9202,2.9164,2.9159,2.9169,2.9144,2.9174,2.9139,2.9136,2.9136,2.9141,2.9236,2.9261,2.932,2.9201,2.9203,2.9204,0,2.9367,2.9359,2.939,2.9359,2.936,2.9372,2.9359,2.9361,2.9341,2.9324,2.9315,2.9281,2.9289,2.9249,2.9259,2.9236,2.9232,2.9219,2.922,2.9218,2.9174,2.9235,2.9339,2.9347,2.9215,2.9215,2.9214,0,2.9454,2.9451,2.9468,2.9462,2.9427,2.9436,2.9421,2.9399,2.9395,2.9384,2.938,2.9371,2.9365,2.9357,2.932,2.9294,2.9333,2.929,2.9317,2.9318,2.9328,2.9328,2.9431,2.9327,2.9327,2.9327,2.9327,0,2.9539,2.956,2.9507,2.9517,2.9537,2.9495,2.9516,2.9496,2.9476,2.948,2.9435,2.944,2.9391,2.9389,2.936,2.9371,2.9369,2.9354,2.9346,2.9357,2.9359,2.9354,2.9349,2.9329,2.9329,2.9328,2.9328,0,2.9641,2.9606,2.9621,2.9586,2.9577,2.9594,2.9562,2.9569,2.9544,2.9549,2.9548,2.9507,2.9502,2.9464,2.9451,2.9431,2.9452,2.9437,2.946,2.9454,2.9482,2.948,2.9585,2.9596,2.9487,2.9488,2.9489,0,2.9697,2.9711,2.9677,2.9676,2.9664,2.9665,2.966,2.9617,2.9614,2.9589,2.9599,2.959,2.9581,2.9575,2.9543,2.9531,2.9514,2.9552,2.9512,2.9522,2.9513,2.9512,2.9512,2.956,2.9562,2.9563,2.9564,0,2.98,2.9781,2.9777,2.9766,2.9761,2.975,2.9736,2.9738,2.969,2.9688,2.9683,2.9676,2.9661,2.9652,2.9634,2.9617,2.9582,2.9576,2.9582,2.9594,2.9606,2.9597,2.9481,2.9574,2.9573,2.9573,2.9572,2.9572,2.9879,2.9888,2.9865,2.986,2.9845,2.9832,2.9836,2.981,2.9805,2.979,2.9764,2.9762,2.9736,2.9709,2.9694,2.9689,2.9669,2.9678,2.968,2.9682,2.9687,2.9607,2.9686,2.9686,2.9686,2.9685,2.9685,0,2.9979,2.996,2.9956,2.9938,2.9933,2.99,2.9882,2.988,2.9879,2.9859,2.985,2.9841,2.9831,2.9797,2.9783,2.9786,2.9769,2.9783,2.9782,2.9778,2.9707,2.9703,2.9797,2.9797,2.9797,2.9797,2.9797,2.9797,3.003,3.0043,3.0021,3.0024,3.0004,3.0002,2.9994,2.9981,2.9964,2.9957,2.9948,2.9926,2.9899,2.9882,2.987,2.986,2.9856,2.9876,2.986,2.9794,2.9784,2.9774,2.9769,2.9875,2.9875,2.9931,2.9932,2.9932]}]]